Theta_e
327 327 327 328 327 327 327 328 329 329 329 330 329 328 329 329 324 308 307 316 324 342 347 322 316 313 314 311 312 308 297 294 296 299 300 304 303 306 307 305 306 306 304 306 311
326 327 327 327 327 327 327 328 329 328 327 328 328 328 329 328 309 306 325 344 349 350 321 313 310 311 307 306 306 302 296 297 303 302 300 303 303 303 303 302 302 302 303 304 304
326 327 327 327 326 327 328 327 327 327 327 328 328 327 328 324 304 305 335 342 346 336 322 317 315 310 304 303 302 301 297 303 305 305 304 302 302 305 301 300 302 299 299 301 301
325 326 326 327 326 327 327 326 326 327 328 328 327 327 326 308 296 308 338 338 341 322 315 310 308 304 300 300 303 299 302 304 306 305 303 300 302 301 301 300 303 302 300 300 298
325 325 326 326 326 326 327 326 326 325 325 325 326 327 309 301 301 312 331 321 315 315 312 309 305 302 298 300 301 299 301 304 305 303 299 300 297 300 300 300 301 302 300 298 297
325 325 325 325 325 326 326 325 326 325 324 325 326 325 304 296 309 309 308 311 311 312 310 311 307 307 302 301 300 301 302 302 302 301 297 295 298 300 299 300 299 300 298 297 296
324 324 324 324 325 326 326 325 325 325 326 327 327 309 303 300 308 306 308 306 309 310 308 309 310 303 302 300 301 302 298 300 293 294 293 294 293 291 298 298 296 296 295 296 296
323 323 323 324 324 325 325 325 324 324 326 326 325 304 299 309 309 308 306 306 308 310 310 307 304 300 297 297 294 291 289 286 289 292 293 292 287 291 295 295 293 293 292 293 293
322 322 323 324 323 324 325 326 324 327 328 326 307 302 297 314 305 306 303 303 306 307 305 307 301 295 294 291 286 286 282 284 288 291 289 288 283 290 294 293 289 288 288 290 290
321 322 322 322 323 324 323 325 323 317 311 309 307 298 303 301 305 304 303 305 304 304 300 297 293 289 290 286 279 282 281 283 284 288 287 286 286 288 288 287 285 285 285 286 288
322 321 321 322 322 321 316 309 301 301 302 299 298 299 302 305 304 302 302 302 302 298 291 293 290 284 285 286 286 285 283 283 285 289 286 286 285 286 286 286 284 284 284 285 286
321 321 320 321 320 317 310 303 300 302 297 303 302 302 304 302 297 299 302 297 294 290 292 289 286 290 291 290 287 285 283 282 286 288 286 285 283 284 285 284 284 284 285 286 287
320 320 320 320 317 310 306 305 310 305 297 301 303 301 300 302 296 296 297 296 292 289 288 286 289 293 290 287 285 283 282 282 282 285 285 285 282 282 285 285 286 286 287 288 288
319 319 319 319 308 304 303 306 309 305 291 296 300 301 300 301 294 300 298 296 293 288 289 288 291 290 287 286 286 281 287 286 284 281 276 281 273 280 280 282 284 284 286 286 288
318 318 317 314 302 301 304 308 306 303 283 298 299 305 299 295 295 296 298 295 289 289 288 286 288 287 285 286 287 284 288 285 284 279 277 277 274 274 280 279 281 283 284 286 288
317 317 313 305 302 302 306 307 304 292 284 295 298 295 292 293 294 296 292 294 292 288 289 287 292 289 287 289 288 288 284 282 281 278 274 275 274 270 275 278 280 282 283 284 286
315 316 309 304 298 303 307 303 292 286 295 292 292 294 289 288 291 291 288 285 282 280 279 284 286 289 290 285 287 284 278 274 274 273 273 277 274 273 279 282 282 281 282 284 285
314 312 308 305 303 305 302 295 286 291 290 295 294 292 287 288 288 288 286 282 285 282 279 277 277 285 289 285 281 281 277 273 270 270 273 277 272 275 281 283 283 283 284 284 284
312 302 299 301 305 303 298 288 287 289 293 292 291 287 284 287 287 286 283 283 285 284 278 276 277 286 288 286 284 280 276 279 274 273 270 273 274 279 280 279 281 281 283 283 284
301 295 296 302 304 300 293 288 288 293 294 292 285 286 282 284 284 284 283 286 286 287 284 279 275 282 285 286 285 280 281 272 273 263 265 268 269 271 274 277 279 280 282 283 285
299 293 296 302 302 296 287 287 291 295 294 290 287 285 283 282 283 282 282 286 287 286 284 279 276 277 282 278 275 277 274 275 273 272 264 263 268 275 275 278 278 281 283 284 285
293 292 300 301 294 288 287 291 297 291 293 291 290 288 284 284 283 283 283 285 287 286 279 281 275 272 275 280 282 279 275 274 266 265 268 264 266 278 279 280 281 282 284 285 286
293 292 299 298 287 285 288 289 290 290 288 289 287 288 286 283 280 285 285 288 288 285 281 282 275 269 271 274 278 276 276 275 274 269 262 259 266 280 280 281 283 282 284 285 286
294 292 293 292 289 288 286 286 286 290 288 288 287 288 284 282 283 282 284 288 288 287 292 285 276 272 268 272 274 273 275 275 271 261 262 267 270 276 278 279 281 283 284 285 286
292 286 289 283 287 287 287 287 285 284 288 288 285 285 283 278 279 279 282 283 284 287 283 279 273 274 275 276 275 275 274 275 267 271 263 271 272 275 278 280 282 283 284 284 285
290 288 288 283 288 285 286 283 285 285 285 284 283 284 283 280 280 279 280 279 278 281 278 278 272 274 272 275 274 274 275 275 275 275 274 274 273 279 282 283 282 283 283 283 284
292 292 291 285 283 283 282 285 286 286 286 286 286 284 282 283 282 281 281 281 280 277 277 276 273 269 266 272 272 268 273 275 275 276 275 271 276 281 280 281 282 282 283 284 284
Wind_Speed
13 14 13 13 13 11 10 9 7 5 3 2 4 5 7 10 7 4 10 6 7 15 9 6 1 5 3 3 3 3 7 2 1 1 2 6 5 5 3 6 6 7 5 6 7
13 14 14 13 12 10 9 8 6 4 3 2 2 3 6 8 4 9 3 11 12 11 1 3 5 6 4 3 4 6 5 3 1 1 2 3 3 2 4 4 6 8 9 9 7
14 14 14 13 12 10 8 7 5 4 2 1 2 4 7 5 5 5 10 19 17 7 1 1 0 1 5 3 5 2 4 4 1 1 3 4 5 2 7 1 4 8 6 5 7
14 14 14 13 11 10 8 6 4 3 3 4 5 7 6 2 4 6 18 18 14 8 2 5 6 5 5 5 4 6 4 2 2 6 5 5 6 3 6 4 8 9 6 5 10
14 14 14 13 11 9 8 6 5 4 4 5 7 8 4 8 4 8 17 12 6 7 7 4 7 3 4 2 3 5 3 4 5 7 9 7 7 5 7 8 10 10 8 8 8
14 14 14 12 11 9 7 7 6 6 5 5 7 5 7 12 6 10 9 6 6 6 6 8 3 1 4 4 6 2 6 6 10 8 9 8 7 4 4 7 10 10 9 8 9
14 14 13 12 10 8 8 7 6 6 7 7 8 4 11 4 4 10 8 3 4 2 4 4 3 7 4 3 7 4 4 5 10 10 5 5 10 7 3 8 10 10 8 8 10
14 14 13 11 10 8 7 6 6 6 6 3 4 5 5 3 6 13 10 5 9 8 5 9 9 7 6 3 7 7 7 5 3 12 7 5 5 11 7 9 9 9 9 10 10
14 14 13 12 10 9 8 6 5 4 3 1 7 6 4 9 15 9 6 6 6 5 11 7 8 6 9 5 7 10 3 4 5 3 5 8 5 16 10 12 11 9 8 8 7
14 13 12 12 10 8 6 2 8 8 7 3 4 6 9 7 5 8 7 5 7 3 8 12 8 6 12 12 3 6 5 4 5 7 8 7 6 9 10 14 8 8 9 9 9
13 12 11 11 9 9 5 5 7 10 12 8 3 4 5 9 4 14 7 8 8 11 5 8 11 6 5 3 3 5 3 5 3 3 7 5 6 6 5 10 11 9 10 10 10
13 12 11 9 8 7 6 6 3 5 8 5 3 4 3 3 7 24 13 9 11 6 2 8 9 7 3 6 4 2 1 4 6 4 4 2 5 3 8 7 8 13 15 15 15
12 11 10 7 3 7 5 3 3 1 8 6 4 5 5 7 6 14 9 4 6 10 10 9 4 3 4 6 11 4 1 3 6 4 2 7 2 0 5 13 18 18 16 19 18
11 11 10 2 10 1 3 3 3 1 8 13 10 9 11 2 6 6 6 2 9 3 4 6 4 5 8 5 5 5 2 9 9 4 4 5 4 2 6 15 16 18 19 19 19
10 10 10 4 7 4 2 1 2 4 6 9 7 3 9 10 5 16 5 7 5 5 3 2 6 6 7 3 3 7 18 10 4 3 4 0 1 3 10 12 15 15 16 17 17
11 9 4 6 4 1 1 3 4 7 4 5 5 7 6 9 8 9 9 9 2 5 8 2 1 4 3 3 2 10 8 2 3 3 2 3 3 2 5 8 11 11 16 18 18
9 10 7 2 2 1 2 4 7 8 4 6 3 4 4 8 7 10 9 14 7 6 8 6 3 5 4 6 6 11 7 6 8 6 4 2 4 5 3 4 7 15 18 19 21
5 6 5 3 2 3 3 7 9 0 2 2 3 3 6 5 6 8 4 7 6 6 5 6 6 7 8 4 3 5 6 5 6 5 12 8 0 4 3 3 11 13 20 23 24
3 3 4 6 1 3 7 8 3 1 2 3 3 5 5 4 5 7 6 5 5 7 5 6 2 5 9 6 4 6 7 2 4 1 3 4 5 6 18 28 29 23 23 23 23
4 4 3 8 2 6 9 5 2 2 2 1 4 3 3 7 4 6 5 4 6 6 1 3 5 3 4 6 11 9 4 6 5 6 8 4 3 6 17 24 25 26 28 28 26
5 5 3 5 4 9 7 4 4 4 2 3 3 4 3 3 4 3 2 2 3 6 5 4 2 2 4 6 2 6 4 4 2 3 3 6 3 2 14 19 20 25 26 24 26
4 4 3 2 8 4 4 3 3 4 8 5 5 6 4 3 3 3 3 3 7 2 3 2 2 2 3 2 8 5 2 3 6 7 3 4 8 3 17 19 20 24 25 24 23
4 1 3 3 6 3 2 5 4 4 5 4 4 4 3 3 3 3 4 3 6 4 3 4 4 4 3 2 5 6 3 3 2 4 3 3 9 15 18 22 21 23 25 24 24
5 4 6 7 2 8 6 3 4 4 4 5 3 4 4 4 6 3 2 2 4 5 10 2 3 5 7 6 3 2 3 4 4 4 4 6 17 22 18 26 26 26 26 24 23
5 1 1 2 6 6 5 3 3 3 3 6 5 7 3 4 2 3 2 2 4 7 4 4 2 1 0 2 3 3 5 5 2 5 4 13 20 19 17 22 24 26 26 26 25
7 7 5 3 2 5 6 2 4 4 4 3 7 4 3 5 1 5 4 1 1 5 3 4 1 3 0 3 2 4 4 6 4 4 8 14 19 6 21 20 22 25 26 26 27
1 2 8 4 3 5 1 4 4 8 2 5 7 6 7 4 4 4 5 4 3 3 2 2 2 2 2 5 3 3 1 3 9 6 9 8 7 18 27 26 24 26 24 23 29
Wind_Direction
351 350 349 349 351 352 354 357 4 15 46 19 353 357 350 348 1 32 45 250 281 287 309 286 13 340 71 57 61 106 61 79 175 160 274 327 37 14 30 66 42 25 51 77 69
351 350 346 346 351 353 355 359 12 42 60 57 352 339 342 344 36 45 275 330 317 314 311 25 346 357 35 36 32 75 86 165 244 187 282 333 27 335 82 69 49 72 42 50 59
351 348 344 346 349 349 356 6 31 50 58 23 339 333 331 328 58 326 325 339 333 358 116 102 295 29 48 15 0 88 126 160 230 306 9 359 13 32 118 122 160 144 124 75 83
349 346 344 347 347 349 359 15 31 38 24 6 344 332 319 9 66 287 335 331 332 347 23 30 27 37 54 42 351 81 46 104 28 35 26 5 310 41 44 12 82 96 100 89 72
349 345 345 350 349 352 357 13 21 31 17 4 350 342 51 46 5 309 329 333 359 16 46 35 44 18 58 35 45 65 36 49 60 53 41 11 5 48 59 61 71 87 79 79 79
349 347 349 351 352 349 358 4 11 11 8 10 354 333 69 68 279 319 329 346 11 28 18 39 50 273 75 48 64 4 62 39 23 15 39 17 357 60 44 91 66 72 64 52 57
349 350 350 348 350 352 353 355 358 355 4 16 9 68 66 87 332 322 352 315 358 29 31 31 354 67 346 47 344 50 66 47 11 342 23 320 31 32 359 74 73 50 42 47 33
351 353 347 346 348 349 349 343 335 341 339 353 348 66 89 331 307 6 346 347 2 24 21 22 36 85 45 293 24 39 50 37 6 0 332 22 239 18 351 82 58 49 40 43 28
354 351 346 342 343 346 343 338 335 345 352 81 41 83 3 332 10 336 16 342 322 41 39 36 53 67 8 50 25 14 341 351 346 75 325 33 347 356 37 76 58 43 37 36 20
351 346 344 341 347 346 348 347 356 39 8 24 67 44 2 316 324 331 325 10 54 18 25 29 51 60 33 38 15 314 332 313 268 337 53 57 41 19 36 67 58 37 20 11 359
345 345 345 345 3 10 36 19 26 8 30 93 302 109 296 302 28 357 349 350 16 51 81 12 64 71 75 61 189 228 256 290 282 346 63 64 69 25 10 49 35 18 5 351 340
343 341 341 340 15 35 68 74 103 175 77 31 59 45 342 343 24 358 4 64 36 39 354 40 51 344 143 23 16 52 190 285 298 10 80 103 79 40 25 36 26 15 7 359 350
343 339 341 338 350 45 72 99 319 354 84 9 11 25 350 32 49 344 21 27 69 46 36 85 332 328 50 13 10 334 209 273 249 329 106 146 131 76 80 36 32 19 12 5 358
344 348 353 151 49 153 47 334 347 6 78 336 350 2 355 23 50 31 24 0 35 86 91 80 342 36 34 44 9 305 234 289 293 140 190 133 256 83 7 28 24 14 10 358 347
350 356 7 80 141 72 169 344 346 51 65 324 347 320 346 74 296 355 355 33 64 7 83 278 14 20 32 352 322 275 306 299 292 168 133 124 109 3 50 15 7 1 349 341 332
345 354 95 29 53 76 65 70 49 43 65 8 13 355 30 21 15 331 13 36 77 64 34 51 77 67 305 328 350 291 325 33 67 89 352 159 82 34 27 357 345 339 344 337 330
342 359 66 95 138 150 93 52 42 76 328 341 349 25 74 9 24 20 20 34 34 17 12 343 26 354 22 356 11 19 3 347 352 2 254 208 346 71 66 356 328 335 337 338 337
336 38 5 56 93 111 63 58 72 15 29 337 12 68 65 11 16 16 39 24 20 29 52 21 345 9 328 41 311 25 64 106 288 298 300 308 217 158 176 266 329 324 339 343 341
139 12 45 337 353 59 71 55 142 117 300 22 80 67 4 356 94 65 45 18 11 18 56 3 307 339 39 32 15 342 35 258 269 319 352 309 66 298 350 1 353 338 328 327 326
82 61 17 324 40 59 72 116 101 23 4 26 88 28 32 342 48 60 28 343 337 21 135 342 308 24 335 35 27 90 312 10 22 341 308 325 26 299 354 346 343 334 328 325 325
59 62 278 342 50 51 93 109 111 45 85 54 123 94 63 32 52 57 7 298 344 327 44 8 100 311 57 35 16 13 19 38 155 153 218 307 283 322 355 338 331 324 322 320 317
95 60 321 59 55 42 66 83 97 0 25 51 84 67 77 40 59 93 100 13 345 346 40 325 130 343 94 67 93 95 72 106 117 287 242 166 274 347 345 331 325 319 318 317 313
89 109 330 82 106 74 81 64 73 39 32 44 78 80 62 87 76 67 79 1 13 50 60 342 16 11 355 342 10 49 6 17 101 75 225 108 279 324 330 322 320 320 315 314 312
86 62 354 45 36 108 122 79 103 29 69 66 105 89 87 66 30 124 103 36 21 13 38 101 94 137 199 234 198 334 24 32 85 72 264 246 294 316 326 324 323 318 314 313 312
35 138 227 20 10 80 89 103 104 66 35 32 57 43 76 98 73 109 126 106 24 353 31 70 96 327 86 113 348 52 66 350 106 248 153 294 298 303 321 315 313 309 311 313 315
122 131 25 78 30 65 18 40 118 130 18 32 89 42 94 116 201 180 123 128 204 21 51 353 218 13 168 4 321 96 28 328 259 313 297 288 297 311 312 314 316 315 317 317 319
169 57 101 322 42 79 281 156 129 124 63 45 138 100 65 107 108 93 85 80 82 107 85 55 98 63 306 1 102 334 337 298 290 286 275 290 297 322 322 321 321 316 309 313 320